Peru, IN

7:17 PM EDT on June 22, 2017 (GMT -0400)
Grissom Air Reserve Base

Weather History for KGUS - October, 2012

Change the Weather History Date:

Thursday, October 18, 2012

  Actual Average Record
Temperature  
Mean Temperature 52 °F -  
Max Temperature 60 °F 59 °F 80 °F (2007)
Min Temperature 45 °F 41 °F 27 °F (2015)
Degree Days  
Heating Degree Days 12    
Growing Degree Days 2 (Base 50)    
Moisture  
Dew Point 49 °F    
Average Humidity 86    
Maximum Humidity 100    
Minimum Humidity 39    
Precipitation  
Precipitation 0.32 in - - ()
Sea Level Pressure  
Sea Level Pressure 29.45 in    
Wind  
Wind Speed 19 mph (SW)    
Max Wind Speed 29 mph    
Max Gust Speed 36 mph    
Visibility 10 miles    
Events Rain    
Averages and records for this station are not official NWS values.
T = Trace of Precipitation, MM = Missing Value Source: NWS Daily Summary

Daily Weather History Graph

Daily Weather History Graph

Search for Another Location

Airport or City:

Trip Planner

Search our weather history database for the weather conditions in past years. The results will help you decide how hot, cold, wet, or windy it might be!

Date:

Astronomy

Oct. 18, 2012 Rise Set
Actual Time 7:59 AM EDT 6:59 PM EDT
Civil Twilight 7:31 AM EDT 7:26 PM EDT
Nautical Twilight 7:00 AM EDT 7:58 PM EDT
Astronomical Twilight 6:28 AM EDT 8:30 PM EDT
Moon 11:41 AM EDT (10/18) 9:31 PM EDT (10/18)
Length of Visible Light 11h 55m
Length of Day
10h 59m
Waxing Crescent, 14% of the Moon is Illuminated
Oct 18
Waxing Crescent
Oct 21
First Quarter
Oct 29
Full
Nov 6
Last Quarter
Nov 13
New

Hourly Weather History & Observations

Time (EDT) Temp. Windchill Dew Point Humidity Pressure Visibility Wind Dir Wind Speed Gust Speed Precip Events Conditions
12:08 AM 59.0 °F - 55.4 °F 88% 29.46 in 10.0 mi South 19.6 mph 26.5 mph N/A   Overcast
12:55 AM 58.5 °F - 54.3 °F 86% 29.43 in 10.0 mi South 18.4 mph - 0.02 in   Partly Cloudy
12:56 AM 59.0 °F - 53.6 °F 82% 29.43 in 10.0 mi South 18.4 mph - N/A Rain Light Rain
1:37 AM 57.2 °F - 55.4 °F 94% 29.42 in 10.0 mi South 25.3 mph 34.5 mph N/A   Mostly Cloudy
1:38 AM 57.2 °F - 55.4 °F 94% 29.42 in 10.0 mi South 23.0 mph 34.5 mph N/A Rain Light Rain
1:42 AM 57.2 °F - 55.4 °F 94% 29.42 in 10.0 mi South 20.7 mph 34.5 mph N/A   Overcast
1:55 AM 57.0 °F - 55.0 °F 93% 29.41 in 9.0 mi South 19.6 mph 27.6 mph 0.06 in Rain Rain
2:12 AM 57.2 °F - 55.4 °F 94% 29.40 in 10.0 mi South 18.4 mph 28.8 mph N/A   Overcast
2:22 AM 57.2 °F - 55.4 °F 94% 29.41 in 10.0 mi South 18.4 mph 23.0 mph N/A   Overcast
2:43 AM 57.2 °F - 55.4 °F 94% 29.40 in 10.0 mi South 19.6 mph 28.8 mph N/A   Overcast
2:55 AM 56.7 °F - 55.0 °F 94% 29.40 in 10.0 mi South 19.6 mph 25.3 mph 0.07 in   Overcast
2:59 AM 57.2 °F - 55.4 °F 94% 29.40 in 10.0 mi South 18.4 mph 25.3 mph N/A   Overcast
3:07 AM 57.2 °F - 55.4 °F 94% 29.39 in 10.0 mi South 20.7 mph 27.6 mph N/A Rain Light Rain
3:08 AM 57.2 °F - 55.4 °F 94% 29.39 in 10.0 mi South 19.6 mph 27.6 mph N/A   Overcast
3:14 AM 57.2 °F - 55.4 °F 94% 29.39 in 10.0 mi South 17.3 mph 27.6 mph N/A Rain Light Rain
3:17 AM 57.2 °F - 55.4 °F 94% 29.39 in 10.0 mi South 18.4 mph 25.3 mph N/A   Overcast
3:46 AM 55.4 °F - 55.4 °F 100% 29.37 in 10.0 mi South 17.3 mph - N/A   Overcast
3:48 AM 55.4 °F - 55.4 °F 100% 29.37 in 10.0 mi South 17.3 mph - N/A Rain Light Rain
3:52 AM 55.4 °F - 53.6 °F 94% 29.37 in 10.0 mi South 17.3 mph - N/A   Overcast
3:54 AM 55.4 °F - 53.6 °F 94% 29.37 in 10.0 mi South 19.6 mph - N/A   Overcast
3:55 AM 55.8 °F - 54.5 °F 96% 29.37 in 10.0 mi South 18.4 mph - 0.08 in   Overcast
4:08 AM 55.4 °F - 55.4 °F 100% 29.37 in 10.0 mi SW 25.3 mph 31.1 mph N/A Rain Light Rain
4:09 AM 55.4 °F - 53.6 °F 94% 29.37 in 10.0 mi SW 28.8 mph - N/A Rain Light Rain
4:13 AM 55.4 °F - 51.8 °F 88% 29.38 in 10.0 mi WSW 20.7 mph 31.1 mph N/A Rain Light Rain
4:15 AM 53.6 °F - 51.8 °F 94% 29.37 in 10.0 mi West 20.7 mph 31.1 mph N/A Rain Light Rain
4:18 AM 53.6 °F - 51.8 °F 94% 29.37 in 10.0 mi West 20.7 mph 26.5 mph N/A   Overcast
4:20 AM 51.8 °F - 50.0 °F 94% 29.38 in 10.0 mi West 20.7 mph 26.5 mph N/A Rain Light Rain
4:28 AM 51.8 °F - 50.0 °F 94% 29.39 in 10.0 mi West 21.9 mph 27.6 mph N/A Rain Light Rain
4:35 AM 51.8 °F - 50.0 °F 94% 29.39 in 7.0 mi West 16.1 mph 27.6 mph N/A Rain Light Rain
4:47 AM 51.8 °F - 50.0 °F 94% 29.40 in 10.0 mi West 16.1 mph - N/A Rain Light Rain
4:49 AM 51.8 °F - 50.0 °F 94% 29.40 in 10.0 mi West 18.4 mph - N/A Rain Light Rain
4:55 AM 51.1 °F - 50.0 °F 96% 29.40 in 8.0 mi West 17.3 mph - 0.05 in Rain Light Rain
5:00 AM 51.8 °F - 50.0 °F 94% 29.41 in 8.0 mi WSW 17.3 mph - N/A Rain Light Rain
5:15 AM 51.8 °F - 50.0 °F 94% 29.39 in 9.0 mi West 13.8 mph - N/A Rain Light Rain
5:19 AM 50.0 °F - 50.0 °F 100% 29.41 in 10.0 mi West 16.1 mph - N/A Rain Light Rain
5:28 AM 50.0 °F - 50.0 °F 100% 29.41 in 10.0 mi West 17.3 mph - N/A Rain Light Rain
5:49 AM 50.0 °F - 50.0 °F 100% 29.42 in 10.0 mi West 15.0 mph - N/A   Light Drizzle
5:53 AM 50.0 °F - 50.0 °F 100% 29.42 in 10.0 mi West 13.8 mph - N/A   Mostly Cloudy
5:55 AM 50.5 °F - 49.5 °F 96% 29.42 in 10.0 mi West 13.8 mph - 0.03 in   Overcast
6:00 AM 50.0 °F - 48.2 °F 94% 29.43 in 10.0 mi WSW 13.8 mph - N/A   Overcast
6:08 AM 50.0 °F - 48.2 °F 94% 29.44 in 10.0 mi WSW 12.7 mph - N/A   Overcast
6:13 AM 50.0 °F - 48.2 °F 94% 29.44 in 10.0 mi SW 12.7 mph - N/A   Overcast
6:16 AM 50.0 °F - 48.2 °F 94% 29.45 in 10.0 mi SW 12.7 mph - N/A   Overcast
6:20 AM 50.0 °F - 48.2 °F 94% 29.45 in 10.0 mi SW 12.7 mph - N/A   Overcast
6:25 AM 50.0 °F - 48.2 °F 94% 29.45 in 10.0 mi SW 13.8 mph - N/A   Overcast
6:29 AM 50.0 °F - 48.2 °F 94% 29.45 in 10.0 mi WSW 13.8 mph - N/A   Overcast
6:40 AM 50.0 °F - 48.2 °F 94% 29.46 in 10.0 mi WSW 15.0 mph - N/A   Mostly Cloudy
6:55 AM 49.6 °F - 45.9 °F 87% 29.46 in 10.0 mi WSW 19.6 mph - N/A   Mostly Cloudy
7:55 AM 48.4 °F - 43.5 °F 83% 29.48 in 10.0 mi WSW 20.7 mph 28.8 mph N/A   Mostly Cloudy
8:55 AM 47.1 °F - 43.5 °F 87% 29.51 in 10.0 mi WSW 13.8 mph 23.0 mph N/A   Partly Cloudy
9:55 AM 49.1 °F - 43.2 °F 80% 29.53 in 10.0 mi SW 13.8 mph - N/A   Clear
10:30 AM 50.0 °F - 42.8 °F 76% 29.52 in 10.0 mi SW 13.8 mph - N/A   Clear
10:55 AM 51.4 °F - 42.8 °F 72% 29.54 in 10.0 mi SW 12.7 mph - N/A   Clear
11:55 AM 54.9 °F - 41.7 °F 61% 29.53 in 10.0 mi SSW 18.4 mph 25.3 mph N/A   Clear
12:55 PM 56.3 °F - 42.1 °F 59% 29.54 in 10.0 mi SSW 27.6 mph 34.5 mph N/A   Partly Cloudy
1:55 PM 59.0 °F - 39.9 °F 49% 29.53 in 10.0 mi SSW 27.6 mph 35.7 mph 0.01 in   Clear
2:55 PM 58.6 °F - 38.1 °F 46% 29.52 in 10.0 mi SW 23.0 mph 27.6 mph N/A   Scattered Clouds
3:55 PM 59.5 °F - 34.3 °F 39% 29.52 in 10.0 mi SW 23.0 mph 33.4 mph N/A   Partly Cloudy
4:55 PM 57.2 °F - 34.3 °F 42% 29.55 in 10.0 mi SW 23.0 mph 28.8 mph N/A   Scattered Clouds
5:55 PM 55.6 °F - 32.4 °F 41% 29.57 in 10.0 mi WSW 18.4 mph 24.2 mph N/A   Mostly Cloudy
6:55 PM 55.0 °F - 31.3 °F 40% 29.60 in 10.0 mi SW 17.3 mph 27.6 mph N/A   Scattered Clouds
7:55 PM 53.4 °F - 34.3 °F 48% 29.61 in 10.0 mi West 13.8 mph - N/A   Scattered Clouds
8:55 PM 52.3 °F - 36.5 °F 55% 29.63 in 10.0 mi WSW 18.4 mph - N/A   Scattered Clouds
9:55 PM 46.6 °F - 41.4 °F 82% 29.64 in 10.0 mi West 6.9 mph - N/A   Scattered Clouds
10:55 PM 46.2 °F 42.7 °F 41.4 °F 83% 29.63 in 10.0 mi WSW 6.9 mph - N/A   Overcast
11:55 PM 45.9 °F - 41.5 °F 85% 29.61 in 10.0 mi Calm Calm - N/A   Mostly Cloudy